EW3649 Weather Reports


time (UTC)temp
C
wind
direction
speed
KPH
gust
KPH
rain 1hr
cm
rain 24hr
cm
rain mn
cm
humidity
%
barometer
mb
20260508164005 11 52 0.0 3.2 0.00 0.00 0.00 79 1019.6
20260508163006 11 51 0.0 4.8 0.00 0.00 0.00 80 1019.6
20260508162504 11 52 0.0 4.8 0.00 0.00 0.00 80 1019.5
20260508162005 11 52 0.0 4.8 0.00 0.00 0.00 80 1019.5
20260508161504 11 53 0.0 3.2 0.00 0.00 0.00 80 1019.4
20260508161006 11 60 0.0 3.2 0.00 0.00 0.00 81 1019.4
20260508160005 10 64 0.0 3.2 0.00 0.00 0.00 81 1019.5
20260508155504 10 63 0.0 3.2 0.00 0.00 0.00 82 1019.5
20260508155006 10 0 0.0 0.0 0.00 0.00 0.00 82 1019.5
20260508154504 10 337 0.0 3.2 0.00 0.00 0.00 83 1019.4
20260508154005 10 337 0.0 3.2 0.00 0.00 0.00 83 1019.7
20260508153503 10 338 0.0 8.0 0.00 0.00 0.00 83 1019.7
20260508153005 10 338 0.0 8.0 0.00 0.00 0.00 83 1019.7
20260508152006 10 342 1.6 8.0 0.00 0.00 0.00 85 1019.8
20260508151504 10 342 0.0 8.0 0.00 0.00 0.00 85 1019.8
20260508151004 10 343 0.0 8.0 0.00 0.00 0.00 85 1019.8
20260508150504 9 0 0.0 0.0 0.00 0.00 0.00 86 1019.6
20260508145504 9 347 0.0 3.2 0.00 0.00 0.00 87 1019.6
20260508145005 9 347 0.0 3.2 0.00 0.00 0.00 87 1019.6
20260508144504 9 348 0.0 6.4 0.00 0.00 0.00 88 1019.5
20260508143504 9 350 0.0 6.4 0.00 0.00 0.00 88 1019.3
20260508143005 9 351 0.0 6.4 0.00 0.00 0.00 89 1019.2
20260508142504 9 355 0.0 3.2 0.00 0.00 0.00 89 1019.1
20260508142007 8 355 0.0 6.4 0.00 0.00 0.00 90 1019.0
20260508141504 8 355 0.0 6.4 0.00 0.00 0.00 90 1018.9
20260508141004 8 355 0.0 3.2 0.00 0.00 0.00 90 1018.8
20260508140504 8 0 0.0 0.0 0.00 0.00 0.00 91 1018.6
20260508140005 8 355 0.0 3.2 0.00 0.00 0.00 91 1018.5
20260508135504 8 355 0.0 4.8 0.00 0.00 0.00 91 1018.4
20260508134505 8 355 0.0 3.2 0.00 0.00 0.00 92 1018.2
20260508134005 8 355 0.0 3.2 0.00 0.00 0.00 92 1018.2
20260508133504 8 355 0.0 3.2 0.00 0.00 0.00 92 1018.2
20260508133005 8 0 0.0 0.0 0.00 0.00 0.00 92 1018.1
20260508132504 8 0 0.0 0.0 0.00 0.00 0.00 92 1018.0
20260508132005 8 0 0.0 0.0 0.00 0.00 0.00 92 1018.0
20260508131504 8 0 0.0 0.0 0.00 0.00 0.00 92 1017.9
20260508131005 8 0 0.0 0.0 0.00 0.00 0.00 92 1017.9
20260508130005 7 0 0.0 0.0 0.00 0.00 0.00 92 1017.7
20260508125504 7 0 0.0 0.0 0.00 0.00 0.00 92 1017.7
20260508124505 7 0 0.0 0.0 0.00 0.00 0.00 91 1017.6
20260508123504 8 0 0.0 0.0 0.00 0.00 0.00 91 1017.5
20260508123006 8 0 0.0 0.0 0.00 0.00 0.00 91 1017.5
20260508122504 8 0 0.0 0.0 0.00 0.00 0.00 92 1017.4
20260508122005 8 0 0.0 0.0 0.00 0.00 0.00 92 1017.3
20260508121504 8 0 0.0 0.0 0.00 0.00 0.00 92 1017.3
20260508121004 8 0 0.0 0.0 0.00 0.00 0.00 92 1017.3
20260508120504 7 0 0.0 0.0 0.00 0.00 0.00 92 1017.3
20260508120004 7 0 0.0 0.0 0.00 0.00 0.00 92 1017.3
20260508115503 7 0 0.0 0.0 0.00 0.00 0.00 91 1017.2
20260508115006 7 0 0.0 0.0 0.00 0.00 0.00 91 1017.2
20260508114504 7 0 0.0 0.0 0.00 0.00 0.00 91 1017.2
20260508114005 8 0 0.0 0.0 0.00 0.00 0.00 91 1017.3
20260508113504 8 0 0.0 0.0 0.00 0.00 0.00 92 1017.2
20260508113006 7 0 0.0 0.0 0.00 0.00 0.00 91 1016.9
20260508112504 7 0 0.0 0.0 0.00 0.00 0.00 91 1017.0
20260508112006 8 0 0.0 0.0 0.00 0.00 0.00 91 1016.9
20260508111504 8 0 0.0 0.0 0.00 0.00 0.00 91 1016.9
20260508111009 8 0 0.0 0.0 0.00 0.00 0.00 91 1016.8
20260508105504 7 0 0.0 0.0 0.00 0.00 0.00 92 1016.5
20260508105005 7 0 0.0 0.0 0.00 0.00 0.00 91 1016.6
20260508104504 7 0 0.0 0.0 0.00 0.00 0.00 91 1016.6
20260508104005 7 0 0.0 0.0 0.00 0.00 0.00 91 1016.6
20260508103504 7 0 0.0 0.0 0.00 0.00 0.00 91 1016.4
20260508103005 7 0 0.0 0.0 0.00 0.00 0.00 91 1016.5
20260508102005 7 0 0.0 0.0 0.00 0.00 0.00 91 1016.3
20260508101504 7 0 0.0 0.0 0.00 0.00 0.00 91 1016.3
20260508101005 7 0 0.0 0.0 0.00 0.00 0.00 91 1016.2
20260508100504 7 0 0.0 0.0 0.00 0.00 0.00 90 1016.2
20260508100005 8 0 0.0 0.0 0.00 0.00 0.00 90 1016.3
20260508095504 8 0 0.0 0.0 0.00 0.00 0.00 90 1016.3
20260508095004 8 0 0.0 0.0 0.00 0.00 0.00 90 1016.3
20260508094004 8 0 0.0 0.0 0.00 0.00 0.00 90 1016.2
20260508093504 8 0 0.0 0.0 0.00 0.00 0.00 90 1016.2
20260508093004 8 0 0.0 0.0 0.00 0.00 0.00 89 1016.3
20260508092503 8 0 0.0 0.0 0.00 0.00 0.00 89 1016.3
20260508092005 8 0 0.0 0.0 0.00 0.00 0.00 89 1016.2
20260508091005 8 0 0.0 0.0 0.00 0.00 0.00 89 1016.3
20260508090504 8 0 0.0 0.0 0.00 0.00 0.00 89 1016.2
20260508090005 8 0 0.0 0.0 0.00 0.00 0.00 89 1016.2
20260508085503 8 0 0.0 0.0 0.00 0.00 0.00 89 1016.2
20260508084504 8 0 0.0 0.0 0.00 0.00 0.00 89 1016.1
20260508084004 8 0 0.0 0.0 0.00 0.00 0.00 89 1016.2
20260508083504 8 0 0.0 0.0 0.00 0.00 0.00 89 1016.1
20260508083004 8 0 0.0 0.0 0.00 0.00 0.00 89 1016.1
20260508082504 8 0 0.0 0.0 0.00 0.00 0.00 88 1016.1
20260508082004 8 0 0.0 0.0 0.00 0.00 0.00 88 1016.0
20260508081504 9 0 0.0 0.0 0.00 0.00 0.00 88 1016.0
20260508081004 9 0 0.0 0.0 0.00 0.00 0.00 88 1016.0
20260508080503 9 0 0.0 0.0 0.00 0.00 0.00 88 1016.1
20260508080004 9 0 0.0 0.0 0.00 0.00 0.00 88 1016.1
20260508075504 9 0 0.0 0.0 0.00 0.00 0.00 88 1016.1
20260508075005 9 0 0.0 0.0 0.00 0.00 0.00 87 1016.1
20260508074505 10 0 0.0 0.0 0.00 0.00 0.00 87 1016.2
20260508074006 10 0 0.0 0.0 0.00 0.00 0.00 86 1016.2
20260508073505 10 0 0.0 0.0 0.00 0.00 0.00 86 1016.1
20260508073006 10 0 0.0 0.0 0.00 0.00 0.00 86 1016.2
20260508072505 10 0 0.0 0.0 0.00 0.00 0.00 86 1016.2
20260508072006 10 0 0.0 0.0 0.00 0.00 0.00 86 1016.2
20260508071007 10 0 0.0 0.0 0.00 0.00 0.00 86 1016.2
20260508070505 10 0 0.0 0.0 0.00 0.00 0.00 86 1016.2
20260508065505 10 0 0.0 0.0 0.00 0.00 0.00 86 1016.3
20260508065005 10 0 0.0 0.0 0.00 0.00 0.00 86 1016.3
20260508064505 10 0 0.0 0.0 0.00 0.00 0.00 85 1016.3
20260508064005 10 0 0.0 0.0 0.00 0.00 0.00 84 1016.3
20260508063505 10 0 0.0 0.0 0.00 0.00 0.00 84 1016.3
20260508063006 10 0 0.0 0.0 0.00 0.00 0.00 84 1016.2
20260508062005 10 0 0.0 0.0 0.00 0.00 0.00 84 1016.2
20260508061006 10 0 0.0 0.0 0.00 0.00 0.00 84 1016.2
20260508060505 10 0 0.0 0.0 0.00 0.00 0.00 84 1016.3
20260508060006 10 0 0.0 0.0 0.00 0.00 0.00 82 1016.3
20260508055505 11 0 0.0 0.0 0.00 0.00 0.00 82 1016.3
20260508055006 11 0 0.0 0.0 0.00 0.00 0.00 81 1016.4
20260508054504 11 0 0.0 0.0 0.00 0.00 0.00 80 1016.3
20260508054005 11 0 0.0 0.0 0.00 0.00 0.00 80 1016.3
20260508053505 11 0 0.0 0.0 0.00 0.00 0.00 80 1016.3
20260508053005 11 0 0.0 0.0 0.00 0.00 0.00 80 1016.4
20260508052504 11 0 0.0 0.0 0.00 0.00 0.00 80 1016.4
20260508052006 11 0 0.0 0.0 0.00 0.00 0.00 80 1016.4
20260508051005 11 0 0.0 0.0 0.00 0.00 0.00 77 1016.4
20260508050505 11 0 0.0 0.0 0.00 0.00 0.00 77 1016.4
20260508050006 12 0 0.0 0.0 0.00 0.00 0.00 76 1016.4
20260508044505 12 0 0.0 0.0 0.00 0.00 0.00 74 1016.4
20260508044007 12 0 0.0 0.0 0.00 0.00 0.00 75 1016.4
20260508043505 12 0 0.0 0.0 0.00 0.00 0.00 74 1016.5
20260508042505 13 0 0.0 0.0 0.00 0.00 0.00 72 1016.4
20260508041505 13 0 0.0 0.0 0.00 0.00 0.00 72 1016.5
20260508040505 13 0 0.0 0.0 0.00 0.00 0.00 71 1016.5
20260508040005 13 0 0.0 0.0 0.00 0.00 0.00 70 1016.5
20260508035505 14 0 0.0 0.0 0.00 0.00 0.00 70 1016.4
20260508034505 14 0 0.0 0.0 0.00 0.00 0.00 68 1016.3
20260508034005 15 0 0.0 0.0 0.00 0.00 0.00 67 1016.3
20260508033504 15 0 0.0 0.0 0.00 0.00 0.00 67 1016.4
20260508032505 15 0 0.0 0.0 0.00 0.00 0.00 65 1016.4
20260508031505 15 0 0.0 0.0 0.00 0.00 0.00 65 1016.4
20260508031006 16 0 0.0 0.0 0.00 0.00 0.00 63 1016.4
20260508030005 16 0 0.0 0.0 0.00 0.00 0.00 62 1016.4
20260508025505 16 0 0.0 0.0 0.00 0.00 0.00 62 1016.4
20260508025005 16 0 0.0 0.0 0.00 0.00 0.00 62 1016.4
20260508024505 16 0 0.0 0.0 0.00 0.00 0.00 61 1016.5
20260508024005 16 0 0.0 0.0 0.00 0.00 0.00 61 1016.5
20260508023505 16 0 0.0 0.0 0.00 0.00 0.00 61 1016.5
20260508023005 16 0 0.0 0.0 0.00 0.00 0.00 61 1016.4
20260508022506 16 0 0.0 0.0 0.00 0.00 0.00 61 1016.5
20260508022004 16 0 0.0 0.0 0.00 0.00 0.00 61 1016.4
20260508021006 17 0 0.0 0.0 0.00 0.00 0.00 60 1016.6
20260508020505 17 0 0.0 0.0 0.00 0.00 0.00 59 1016.6
20260508020006 17 0 0.0 0.0 0.00 0.00 0.00 61 1016.6
20260508015006 17 0 0.0 0.0 0.00 0.00 0.00 59 1016.6
20260508014505 17 0 0.0 0.0 0.00 0.00 0.00 60 1016.7
20260508014006 17 355 0.0 1.6 0.00 0.00 0.00 60 1016.7
20260508013505 17 355 0.0 4.8 0.00 0.00 0.00 59 1016.7
20260508012505 17 0 0.0 0.0 0.00 0.00 0.00 59 1016.7
20260508012005 17 355 0.0 3.2 0.00 0.00 0.00 59 1016.7
20260508011505 17 355 0.0 3.2 0.00 0.00 0.00 59 1016.8
20260508011004 17 355 0.0 1.6 0.00 0.00 0.00 58 1016.9
20260508010006 17 355 0.0 1.6 0.00 0.00 0.00 59 1017.1
20260508005504 17 355 0.0 1.6 0.00 0.00 0.00 59 1017.1
20260508005005 17 0 0.0 0.0 0.00 0.00 0.00 58 1017.1
20260508004504 17 355 0.0 1.6 0.00 0.00 0.00 58 1017.2
20260508004005 17 355 0.0 1.6 0.00 0.00 0.00 57 1017.2
20260508003504 17 355 0.0 1.6 0.00 0.00 0.00 59 1017.2
20260508003006 17 355 0.0 4.8 0.00 0.00 0.00 57 1017.3
20260508002505 17 355 0.0 4.8 0.00 0.00 0.00 57 1017.3
20260508002005 18 355 0.0 1.6 0.00 0.00 0.00 57 1017.3
20260508001007 18 355 0.0 1.6 0.00 0.00 0.00 55 1017.3
20260508000505 18 355 0.0 1.6 0.00 0.00 0.00 55 1017.3
20260508000004 18 355 0.0 1.6 0.00 0.00 0.00 55 1017.3
20260507235505 18 355 0.0 1.6 0.00 0.00 0.00 55 1017.3
20260507235005 18 5 0.0 1.6 0.00 0.00 0.00 56 1017.2
20260507234504 18 5 0.0 1.6 0.00 0.00 0.00 55 1017.3
20260507234005 18 1 0.0 1.6 0.00 0.00 0.00 55 1017.3
20260507233505 18 1 0.0 1.6 0.00 0.00 0.00 55 1017.3
20260507233004 18 1 0.0 3.2 0.00 0.00 0.00 56 1017.4
20260507232504 18 359 0.0 6.4 0.00 0.00 0.00 56 1017.4
20260507232005 18 359 0.0 6.4 0.00 0.00 0.00 54 1017.4
20260507231505 18 0 0.0 0.0 0.00 0.00 0.00 56 1017.5
20260507230504 18 0 0.0 0.0 0.00 0.00 0.00 57 1017.6
20260507230006 18 355 0.0 1.6 0.00 0.00 0.00 56 1017.6
20260507225505 18 355 0.0 1.6 0.00 0.00 0.00 56 1017.8
20260507225005 18 0 0.0 0.0 0.00 0.00 0.00 55 1017.8
20260507224505 18 0 0.0 0.0 0.00 0.00 0.00 57 1017.8
20260507223505 17 0 0.0 0.0 0.00 0.00 0.00 58 1017.9
20260507221504 17 0 0.0 0.0 0.00 0.00 0.00 58 1018.2
20260507221005 17 0 0.0 0.0 0.00 0.00 0.00 57 1018.2
20260507220004 18 0 0.0 0.0 0.00 0.00 0.00 58 1018.3
20260507215505 18 0 0.0 0.0 0.00 0.00 0.00 57 1018.3
20260507215005 18 1 0.0 1.6 0.00 0.00 0.00 57 1018.4
20260507214505 18 1 0.0 1.6 0.00 0.00 0.00 59 1018.4
20260507214006 17 0 0.0 0.0 0.00 0.00 0.00 59 1018.5
20260507213504 17 0 0.0 0.0 0.00 0.00 0.00 62 1018.5
20260507212504 17 0 0.0 0.0 0.00 0.00 0.00 60 1018.6
20260507211504 17 0 0.0 0.0 0.00 0.00 0.00 63 1018.8
20260507211006 17 0 0.0 0.0 0.00 0.00 0.00 62 1018.8
20260507210505 16 0 0.0 0.0 0.00 0.00 0.00 63 1018.8
20260507210006 16 0 0.0 0.0 0.00 0.00 0.00 64 1018.9
20260507205505 16 0 0.0 0.0 0.00 0.00 0.00 62 1018.9
20260507204504 16 0 0.0 0.0 0.00 0.00 0.00 66 1019.1
20260507204004 16 0 0.0 0.0 0.00 0.00 0.00 66 1019.1
20260507203505 16 0 0.0 0.0 0.00 0.00 0.00 65 1019.1
20260507203005 16 0 0.0 0.0 0.00 0.00 0.00 65 1019.2
20260507202504 16 0 0.0 0.0 0.00 0.00 0.00 65 1019.2
20260507202005 16 0 0.0 0.0 0.00 0.00 0.00 65 1019.3
20260507201504 16 0 0.0 0.0 0.00 0.00 0.00 67 1019.3
20260507201004 16 0 0.0 0.0 0.00 0.00 0.00 65 1019.4
20260507200005 15 0 0.0 0.0 0.00 0.00 0.00 65 1019.5
20260507195504 15 0 0.0 0.0 0.00 0.00 0.00 65 1019.5
20260507195005 15 0 0.0 0.0 0.00 0.00 0.00 66 1019.5
20260507194504 15 0 0.0 0.0 0.00 0.00 0.00 67 1019.5
20260507194005 15 0 0.0 0.0 0.00 0.00 0.00 66 1019.5
20260507193505 15 0 0.0 0.0 0.00 0.00 0.00 67 1019.6
20260507193005 15 0 0.0 0.0 0.00 0.00 0.00 67 1019.6
20260507192504 15 0 0.0 0.0 0.00 0.00 0.00 67 1019.6
20260507192006 15 0 0.0 0.0 0.00 0.00 0.00 67 1019.7
20260507191504 15 0 0.0 0.0 0.00 0.00 0.00 68 1019.7
20260507191005 15 0 0.0 0.0 0.00 0.00 0.00 70 1019.7
20260507190504 15 0 0.0 0.0 0.00 0.00 0.00 71 1019.7
20260507190005 14 0 0.0 0.0 0.00 0.00 0.00 69 1019.8
20260507185504 14 276 0.0 3.2 0.00 0.00 0.00 69 1019.8
20260507185004 14 276 0.0 3.2 0.00 0.00 0.00 70 1019.8
20260507184504 14 276 0.0 1.6 0.00 0.00 0.00 71 1019.9
20260507184005 14 0 0.0 0.0 0.00 0.00 0.00 70 1019.9
20260507183504 14 0 0.0 0.0 0.00 0.00 0.00 71 1020.0
20260507183005 13 0 0.0 0.0 0.00 0.00 0.00 71 1020.0
20260507182504 13 0 0.0 0.0 0.00 0.00 0.00 71 1020.1
20260507182004 13 0 0.0 0.0 0.00 0.00 0.00 71 1020.1
20260507181005 13 0 0.0 0.0 0.00 0.00 0.00 73 1020.1
20260507180504 13 0 0.0 0.0 0.00 0.00 0.00 74 1020.2
20260507180006 13 0 0.0 0.0 0.00 0.00 0.00 74 1020.2
20260507175504 13 0 0.0 0.0 0.00 0.00 0.00 74 1020.2
20260507174504 12 0 0.0 0.0 0.00 0.00 0.00 76 1020.3
20260507174005 12 0 0.0 0.0 0.00 0.00 0.00 76 1020.3
20260507173505 12 0 0.0 0.0 0.00 0.00 0.00 75 1020.3
20260507173005 12 0 0.0 0.0 0.00 0.00 0.00 77 1020.3
20260507172504 12 0 0.0 0.0 0.00 0.00 0.00 77 1020.3
20260507172005 12 0 0.0 0.0 0.00 0.00 0.00 77 1020.2
20260507171503 12 0 0.0 0.0 0.00 0.00 0.00 78 1020.2
20260507171005 12 0 0.0 0.0 0.00 0.00 0.00 77 1020.2
20260507165505 12 276 0.0 4.8 0.00 0.00 0.00 78 1020.2
20260507165005 12 276 0.0 4.8 0.00 0.00 0.00 77 1020.2
20260507164504 12 276 0.0 3.2 0.00 0.00 0.00 78 1020.2